Regional Weather Roundup
Issued by NWS

Home | Current Version | Previous Version | Text Only | Print | Product List | Glossary Off
Versions: 1 2 3 4 5 6 7 8 9 10 11 12 13 14 15 16 17 18 19 20 21 22 23 24 25 26 27 28 29 30 31 32 33 34 35 36 37 38 39 40 41 42 43 44 45 46 47 48 49 50

000
ASUS43 KDTX 261501
RWRMI
MICHIGAN HOURLY REGIONAL WEATHER ROUNDUP
NATIONAL WEATHER SERVICE DETROIT/PONTIAC MI
1100 AM EDT SUN APR 26 2015

NOTE: "FAIR" INDICATES FEW OR NO CLOUDS BELOW 12,000 FEET WITH NO
SIGNIFICANT WEATHER AND/OR OBSTRUCTION TO VISIBILITY.

MIZ047>049-052>055-059>063-066>070-074>076-081>083-261600-
SOUTHEAST LOWER MICHIGAN

CITY           SKY/WX    TMP DP  RH WIND       PRES   REMARKS
ADRIAN         SUNNY     50  29  44 NE12      29.92R
ALMA           SUNNY     50  28  42 NE6       29.97R
ANN ARBOR      SUNNY     51  27  39 N12       29.91S
BAD AXE        SUNNY     46  32  58 NE7       29.95S
CARO           SUNNY     49  32  53 CALM      29.94S
DETROIT CITY   SUNNY     51  29  42 NE14G20   29.92R
DETROIT        MOSUNNY   52  26  36 NE15G22   29.92R
FLINT          SUNNY     52  28  39 NE10      29.95R
GROSSE ILE     SUNNY     52  30  43 NE12G18   29.90R
HILLSDALE      SUNNY     48  28  45 N12       29.92S
HOWELL         SUNNY     49  26  40 NE10G18   29.92S

CITY           SKY/WX    TMP DP  RH WIND       PRES   REMARKS
JACKSON        SUNNY     49  27  42 NE12      29.93S
LAMBERTVILLE   SUNNY     52  28  40 NE10G16   29.91R
LANSING        SUNNY     49  28  44 NE10      29.96R
LAPEER         FAIR      50  28  41 NE5       29.92F
MASON          SUNNY     49  28  44 NE8       29.94S
MONROE         SUNNY     52  28  40 NE9G16    29.89R
MT. CLEMENS    MOSUNNY   52  30  42 NE12      29.88S
PONTIAC        MOSUNNY   50  27  40 NE13      29.91S
PORT HOPE        N/A     43  34  70 N7        29.95R
PORT HURON     SUNNY     50  32  50 N10       29.91S
TRI CITIES     SUNNY     50  33  52 N9        29.96S
MIDLAND        FAIR      51  28  41 N8        29.95S
TROY           SUNNY     51  26  37 NE15      29.93S
SAGINAW HB     SUNNY     48  34  57 N9        29.95S
$$
MIZ043>046-050>051-056>058-064>065-071>073-077>080-261600-
SOUTHWEST LOWER MICHIGAN

CITY           SKY/WX    TMP DP  RH WIND       PRES   REMARKS
BATTLE CREEK   SUNNY     49  27  42 NE8G18    29.96R
BENTON HARBOR  SUNNY     46  33  60 W7        29.99R
BIG RAPIDS     SUNNY     50  28  42 N7        29.97S
COLDWATER      SUNNY     48  28  45 N8        29.94S
FREMONT        FAIR      51  24  35 N8        29.98S
HOLLAND        SUNNY     54  26  34 N7        29.99R
GRAND RAPIDS   SUNNY     51  27  39 N7        29.97R
IONIA          FAIR      49  29  45 N8        29.96R
KALAMAZOO      SUNNY     51  27  39 NE9       29.96R
LUDINGTON      SUNNY     51  34  52 NW8       30.02R
MARSHALL       SUNNY     48  29  47 NE5       29.94S
MOUNT PLEASANT SUNNY     50  29  43 N8        29.96S
MUSKEGON       SUNNY     53  27  36 N8        30.00R
SOUTH HAVEN    SUNNY     49  33  54 NW8       29.99R
$$
MIZ016>042-261600-
NORTHERN LOWER MICHIGAN

CITY           SKY/WX    TMP DP  RH WIND       PRES   REMARKS
BEAVER ISLAND  SUNNY     47  29  50 N7        30.03S
BELLAIRE       SUNNY     49  28  43 CALM      30.01F
CADILLAC       SUNNY     48  27  43 N12       29.98R
CHARLEVOIX     SUNNY     39  32  75 NW7       30.05S WCI  34
FRANKFORT      SUNNY     46  29  51 N5        30.04R
GAYLORD        SUNNY     47  26  44 NE8       29.97S
GRAYLING       MOSUNNY   50  25  36 NW10G20   29.98S
HARBOR SPRINGS SUNNY     38  31  73 SW3       30.01S
HOUGHTON LAKE  SUNNY     49  24  37 N9        29.97S
MANISTEE       SUNNY     45  30  57 N10       30.03S
OSCODA         SUNNY     50  30  46 NE12      29.96S
PELLSTON       SUNNY     48  29  47 N8        30.01S
ROGERS CITY    CLOUDY    41  32  69 N10       30.01S
TRAVERSE CITY  MOSUNNY   44  32  62 N5        30.02R
$$
MIZ007>008-015-261600-
EASTERN UPPER MICHIGAN

CITY           SKY/WX    TMP DP  RH WIND       PRES   REMARKS
KINROSS        PTSUNNY   43  30  61 N9        30.02R
MACKINAC ISLAN MOSUNNY   44  29  55 N9        30.01S
NEWBERRY       SUNNY     42  31  66 N12G18    30.03S
S. S. MARIE    CLOUDY    42  30  62 NE6       30.02R
$$
MIZ004>006-011>014-085-261600-
CENTRAL UPPER MICHIGAN

CITY           SKY/WX    TMP DP  RH WIND       PRES   REMARKS
MANISTIQUE     SUNNY     49  31  48 N12G20    30.04S
ESCANABA       SUNNY     48  27  43 N10G16    30.06S
MENOMINEE      SUNNY     48  25  40 SE8       30.06S
SAWYER-GWINN   SUNNY     41  28  60 NE12G17   30.08R
$$
MIZ001>003-009>011-084-261600-
WESTERN UPPER MICHIGAN

CITY           SKY/WX    TMP DP  RH WIND       PRES   REMARKS
IRON MOUNTAIN  SUNNY     50  22  33 NE8       30.05F
HOUGHTON       SUNNY     45  27  49 N12       30.12R
COPPER HARBOR    N/A     37  30  75 E6        30.15R WCI  32
IRONWOOD       SUNNY     45  25  45 N9        30.12R
$$

ABBREVIATIONS USED IN REMARKS
   TC - TEMPERATURE IN CELSIUS
  WCI - WIND CHILL INDEX
   HX - HEAT INDEX
  VSB - VISIBILITY




USA.gov is the U.S. government's official web portal to all federal, state and local government web resources and services.